TimeEST,TemperatureF,Dew PointF,Humidity,Sea Level PressureIn,VisibilityMPH,Wind Direction,Wind SpeedMPH,Gust SpeedMPH,PrecipitationIn,Events,Conditions,WindDirDegrees,DateUTC
12:56 AM,28.0,26.1,92,30.38,6.0,NNW,4.6,-,N/A,,Clear,340,2012-11-16 05:56:00
1:56 AM,27.0,26.1,96,30.38,3.0,NNW,3.5,-,N/A,,Clear,330,2012-11-16 06:56:00
2:30 AM,28.4,26.6,93,30.34,2.5,Calm,Calm,-,N/A,,Clear,0,2012-11-16 07:30:00
2:56 AM,27.0,25.0,92,30.38,1.8,Calm,Calm,-,N/A,,Clear,0,2012-11-16 07:56:00
3:08 AM,26.6,26.6,100,30.35,2.5,Calm,Calm,-,N/A,,Clear,0,2012-11-16 08:08:00
3:13 AM,26.6,26.6,100,30.35,1.0,Calm,Calm,-,N/A,,Clear,0,2012-11-16 08:13:00
3:20 AM,26.6,24.8,93,30.35,0.5,Calm,Calm,-,N/A,Fog,Light Freezing Fog,0,2012-11-16 08:20:00
3:25 AM,26.6,24.8,93,30.35,1.5,Calm,Calm,-,N/A,,Clear,0,2012-11-16 08:25:00
3:32 AM,26.6,24.8,93,30.35,2.0,Calm,Calm,-,N/A,,Clear,0,2012-11-16 08:32:00
3:56 AM,25.0,24.1,96,30.39,2.5,NNW,3.5,-,N/A,,Clear,340,2012-11-16 08:56:00
4:40 AM,26.6,24.8,93,30.37,2.5,NNW,3.5,-,N/A,,Mostly Cloudy,330,2012-11-16 09:40:00
4:53 AM,26.6,24.8,93,30.37,3.0,NNW,5.8,-,N/A,,Overcast,340,2012-11-16 09:53:00
4:56 AM,27.0,26.1,96,30.41,3.0,NNW,3.5,-,N/A,,Overcast,340,2012-11-16 09:56:00
5:56 AM,30.9,30.9,100,30.42,3.0,NNW,4.6,-,N/A,,Overcast,340,2012-11-16 10:56:00
6:56 AM,30.0,28.9,96,30.43,3.0,Calm,Calm,-,N/A,,Overcast,0,2012-11-16 11:56:00
7:14 AM,30.2,28.4,93,30.39,2.5,Calm,Calm,-,N/A,,Scattered Clouds,0,2012-11-16 12:14:00
7:26 AM,30.2,30.2,100,30.39,1.5,Calm,Calm,-,N/A,,Partly Cloudy,0,2012-11-16 12:26:00
7:33 AM,28.4,28.4,100,30.40,0.8,NW,3.5,-,N/A,,Clear,320,2012-11-16 12:33:00
7:43 AM,28.4,28.4,100,30.41,1.0,NNW,4.6,-,N/A,,Mist,340,2012-11-16 12:43:00
7:56 AM,28.9,28.9,100,30.45,1.5,NNW,3.5,-,N/A,,Partly Cloudy,340,2012-11-16 12:56:00
8:22 AM,32.0,30.2,93,30.42,1.2,North,4.6,-,N/A,,Mostly Cloudy,350,2012-11-16 13:22:00
8:56 AM,34.0,33.1,96,30.47,1.8,North,4.6,-,N/A,,Overcast,360,2012-11-16 13:56:00
9:03 AM,35.6,33.8,93,30.43,2.5,Calm,Calm,-,N/A,,Overcast,0,2012-11-16 14:03:00
9:34 AM,39.2,35.6,87,30.43,4.0,NNE,4.6,-,N/A,,Overcast,30,2012-11-16 14:34:00
9:56 AM,39.9,35.1,83,30.46,5.0,NNE,4.6,-,N/A,,Haze,30,2012-11-16 14:56:00
10:56 AM,43.0,35.1,74,30.47,10.0,ENE,8.1,-,N/A,,Clear,60,2012-11-16 15:56:00
11:56 AM,45.0,35.1,68,30.46,9.0,Variable,5.8,-,N/A,,Clear,0,2012-11-16 16:56:00
12:56 PM,46.9,34.0,61,30.45,10.0,Variable,4.6,-,N/A,,Clear,0,2012-11-16 17:56:00
1:56 PM,50.0,34.0,54,30.44,10.0,North,4.6,-,N/A,,Clear,350,2012-11-16 18:56:00
2:56 PM,50.0,30.9,48,30.44,10.0,NNW,4.6,-,N/A,,Clear,340,2012-11-16 19:56:00
3:56 PM,48.9,32.0,52,30.46,10.0,North,6.9,-,N/A,,Clear,360,2012-11-16 20:56:00
4:56 PM,44.1,30.9,60,30.47,10.0,North,6.9,-,N/A,,Clear,360,2012-11-16 21:56:00
5:56 PM,39.0,30.9,73,30.49,10.0,North,9.2,-,N/A,,Clear,360,2012-11-16 22:56:00
6:56 PM,39.0,30.9,73,30.50,10.0,North,5.8,-,N/A,,Clear,10,2012-11-16 23:56:00
7:56 PM,33.1,28.9,85,30.53,7.0,North,8.1,-,N/A,,Clear,360,2012-11-17 00:56:00
8:56 PM,33.1,28.9,85,30.52,6.0,Calm,Calm,-,N/A,,Clear,0,2012-11-17 01:56:00
9:56 PM,30.9,28.9,92,30.53,4.0,Calm,Calm,-,N/A,,Clear,0,2012-11-17 02:56:00
10:56 PM,30.0,28.0,92,30.53,3.0,Calm,Calm,-,N/A,,Clear,0,2012-11-17 03:56:00
11:56 PM,30.0,30.0,100,30.53,3.0,Calm,Calm,-,N/A,,Mist,0,2012-11-17 04:56:00